Regional Weather Roundup
Issued by NWS

Home | Current Version | Previous Version | Graphics & Text | Print | Product List | Glossary On
Versions: 1 2 3 4 5 6 7 8 9 10 11 12 13 14 15 16 17 18 19 20 21 22 23 24 25 26 27 28 29 30 31 32 33 34 35 36 37 38 39 40 41 42 43 44 45 46 47 48 49 50
000
ASUS43 KMKX 210100
RWRWI

WISCONSIN REGIONAL WEATHER ROUNDUP
NATIONAL WEATHER SERVICE MILWAUKEE/SULLIVAN WI
800 PM CDT SUN AUG 20 2017

NOTE: "FAIR" INDICATES FEW OR NO CLOUDS BELOW 12,000 FEET WITH NO
SIGNIFICANT WEATHER AND/OR OBSTRUCTIONS TO VISIBILITY.

WIZ001-002-006>008-014>016-023>028-210200-
NORTHWEST WISCONSIN

CITY           SKY/WX    TMP DP  RH WIND       PRES   REMARKS
SUPERIOR ARPT    N/A     70  58  66 W5        29.95R
ASHLAND        PTCLDY    71  64  78 W5        29.95R
HAYWARD        PTCLDY    73  65  75 CALM      29.98R
SIREN          CLOUDY    74  64  71 W3        29.98R
CUMBERLAND     CLOUDY    72  64  78 CALM      29.98R
RICE LAKE      CLOUDY    75  66  74 CALM      29.98R
CHETEK         CLOUDY    77  71  82 NW3       29.96R
LADYSMITH      CLOUDY    76  69  78 CALM      29.98R
EAU CLAIRE     NOT AVBL
MENOMONIE      CLEAR     77  70  77 W6        29.96R
NEW RICHMOND   PTCLDY    74  63  68 N3        29.98R
OSCEOLA        PTCLDY    74  65  72 NW3       30.00R
$$

WIZ003>005-009-010-017-018-210200-
NORTH CENTRAL WISCONSIN

CITY           SKY/WX    TMP DP  RH WIND       PRES   REMARKS
MANITOWISH WTR CLOUDY    72  70  94 NW5       29.97R
ARBOR VITAE    PTCLDY    74  69  83 W5        29.98R
WOODRUFF       PTCLDY    74  69  83 W5        29.98R
RHINELANDER    PTCLDY    73  69  87 SW6       29.98R
EAGLE RIVER    MOCLDY    72  65  80 SW5       29.96R
LAND O LAKES   CLOUDY    75  66  74 W3        29.97R
PHILLIPS       CLOUDY    74  70  87 W3        29.97R
TOMAHAWK         N/A     72  67  83 CALM      29.98R
MEDFORD        CLOUDY    73  66  81 SW5       29.98S
MERRILL        NOT AVBL
$$

WIZ029-030-035-036-043>047-210200-
CENTRAL WISCONSIN

CITY           SKY/WX    TMP DP  RH WIND       PRES   REMARKS
WAUSAU         PTCLDY    75  66  73 W6        29.97R
MOSINEE        PTCLDY    73  66  78 SW6       30.00R
MARSHFIELD     CLEAR     73  65  75 SW6       29.99R
STEVENS POINT  PTCLDY    75  65  70 S5        29.99S
WAUPACA        PTCLDY    78  67  68 SW3       29.99R HX  80
WAUTOMA        CLEAR     74  69  85 S5        30.00R
WISC RAPIDS    CLEAR     74  67  78 S8        29.99S
CAMP DOUGLAS   CLEAR     73  70  88 SE5       29.99S
$$

WIZ011>013-019>022-031-037>040-048>050-210200-
NORTHEAST WISCONSIN

CITY           SKY/WX    TMP DP  RH WIND       PRES   REMARKS
ANTIGO         PTCLDY    74  66  76 SW8       29.99R
SHAWANO        CLEAR     78  67  68 CALM      29.96R HX  80
OCONTO         CLEAR     75  68  77 SW5       29.95R
STURGEON BAY   CLEAR     72  68  87 S8        29.97R
GREEN BAY      PTCLDY    74  69  85 SW3       29.97S
MANITOWOC      NOT AVBL
APPLETON       PTCLDY    73  64  73 S7        29.98R
CLINTONVILLE   PTCLDY    75  64  69 SW7       29.97S
OSHKOSH        CLEAR     74  67  78 S8        30.00R
$$

WIZ032>034-041-042-053>061-210200-
SOUTHWEST WISCONSIN

CITY           SKY/WX    TMP DP  RH WIND       PRES   REMARKS
LA CROSSE      CLEAR     83  68  60 S8        29.96R HX  86
SPARTA         CLEAR     76  69  78 SE6       29.98S
VIROQUA        CLEAR     75  65  71 CALM      30.01S
BOSCOBEL       CLEAR     77  64  64 S3        30.00S
PRAIRIE DU CHI CLEAR     76  63  64 SE5       29.99S
PLATTEVILLE    CLEAR     73  71  93 S3        30.03R
$$

WIZ056-057-062-063-064-067-068-210200-
SOUTH CENTRAL WISCONSIN

CITY           SKY/WX    TMP DP  RH WIND       PRES   REMARKS
REEDSBURG      CLEAR     75  69  81 S5        30.01R
BARABOO/DELLS  CLEAR     75  65  71 SW5       30.02R
LONE ROCK      NOT AVBL
MINERAL POINT  CLEAR     73  70  88 CALM      30.04R
MADISON        PTCLDY    73  66  78 S3        30.01S
MIDDLETON      CLEAR     75  67  77 CALM      30.02R
WATERTOWN      CLEAR     74  70  87 CALM      30.01S
MONROE         PTCLDY    73  64  73 S7        30.04R
JANESVILLE     MOCLDY    77  72  83 SW7       30.03R
$$

WIZ051-052-058>065-066-070>072-210200-
SOUTHEAST WISCONSIN

CITY           SKY/WX    TMP DP  RH WIND       PRES   REMARKS
MILWAUKEE      MOCLDY    78  65  63 S5        30.01S HX  80
WAUKESHA       CLEAR     73  66  78 CALM      30.03S
MILWAUKEE/TIMM CLEAR     75  64  69 S7        30.02S
RACINE         CLOUDY    76  66  71 S7        30.03R
KENOSHA        CLOUDY    76  66  71 S6        30.03R
FOND DU LAC    CLEAR     74  66  76 S7        30.01R
SHEBOYGAN      PTCLDY    72  70  93 S5        30.00S
WEST BEND      CLEAR     73  68  83 CALM      30.02S
JUNEAU         CLEAR     73  68  82 S6        30.02F
$$

LSZ147-162-210200-
LAKE SUPERIOR

STATION/POSITION TIME  TEMP    WIND        PRES    WAVE
                       AIR SEA DIR/SP/G            HT/PER
                 (UTC) (F)     (DEG/KT/KT) (MB)    (FT/S)
W MID LAKE BUOY  2350   64 60  260/ 12/ 14 1011.4R   2/ 4
DEVILS ISLAND    0000   69     270/ 15/ 16 1012.4R
PORT WING        2240   85     260/  9/ 14 1012.5
SAXON HARBOR     0040   74     210/  2/  3 1013.2R
$$

LMZ867-665-643>646-210200-
LAKE MICHIGAN

STATION/POSITION TIME  TEMP    WIND        PRES    WAVE
                       AIR SEA DIR/SP/G            HT/PER
                 (UTC) (F)     (DEG/KT/KT) (MB)    (FT/S)
S GREEN BAY BUOY 0030   75 72  210/ 12/ 14 1014.2R
N MID LAKE BUOY  2350   70 68  190/ 19/ 23 1013.7F   4/ 5
NORTHPORT PIER   0040   71     160/  6/ 10 1013.5S
KEWAUNEE LAKESHO 0024   70     190/  6/  8 1014.4
SHEBOYGAN LAKESH 0000   74     190/  9/  9 1015.3R
PORT WASHINGTON  0040   74     190/  3/  5 1016.6F
ATWATER BUOY     2309   72 69  190/  6/  8 1016.1R
MILWAUKEE LAKESH 0050   78     180/  5/  5   N/A
S MID LAKE BUOY  2350   74 72  120/  8/  8 1016.1F   1
KENOSHA   LAKESH 0000   75     160/  4/  6 1015.6
$$

TC  - TEMPERATURE IN CELSIUS
VSB - VISIBILITY IN STATUTE MILES
WCI - WIND CHILL INDEX
HX  - HEAT INDEX




USA.gov is the U.S. government's official web portal to all federal, state and local government web resources and services.